TimeEST,TemperatureF,Dew PointF,Humidity,Sea Level PressureIn,VisibilityMPH,Wind Direction,Wind SpeedMPH,Gust SpeedMPH,PrecipitationIn,Events,Conditions,WindDirDegrees,DateUTC
12:58 AM,68.0,68.0,100,30.02,3.0,South,2.3,-,0.00,,Clear,180,2014-01-06 05:58:00
1:58 AM,66.7,66.7,100,30.01,3.0,Calm,Calm,-,N/A,,Clear,0,2014-01-06 06:58:00
2:58 AM,66.0,66.0,100,30.01,3.0,SW,1.2,-,N/A,,Clear,230,2014-01-06 07:58:00
3:58 AM,66.7,66.7,100,30.01,3.0,Calm,Calm,-,0.01,,Clear,0,2014-01-06 08:58:00
4:58 AM,66.2,66.2,100,30.01,3.0,SSW,2.3,-,N/A,,Clear,210,2014-01-06 09:58:00
6:03 AM,66.2,66.2,100,30.01,7.0,Calm,Calm,-,N/A,,Clear,0,2014-01-06 11:03:00
6:58 AM,66.2,66.2,100,30.03,2.0,Calm,Calm,-,N/A,,Clear,0,2014-01-06 11:58:00
7:48 AM,68.0,68.0,100,30.05,10.0,South,2.3,-,N/A,,Partly Cloudy,170,2014-01-06 12:48:00
7:58 AM,67.6,67.6,100,30.06,10.0,SSE,4.6,-,N/A,,Partly Cloudy,160,2014-01-06 12:58:00
8:58 AM,72.1,72.1,100,30.08,10.0,South,2.3,-,N/A,,Clear,190,2014-01-06 13:58:00
9:58 AM,74.5,74.5,100,30.09,10.0,South,2.3,-,N/A,,Clear,170,2014-01-06 14:58:00
10:58 AM,77.2,77.2,100,30.07,10.0,SSW,5.8,-,N/A,,Clear,200,2014-01-06 15:58:00
11:58 AM,79.5,73.0,80,30.05,10.0,South,5.8,-,N/A,,Clear,170,2014-01-06 16:58:00
12:58 PM,81.9,71.4,70,30.02,10.0,SSW,6.9,-,N/A,,Clear,210,2014-01-06 17:58:00
1:58 PM,82.6,71.6,69,30.00,10.0,South,5.8,-,N/A,,Partly Cloudy,190,2014-01-06 18:58:00
2:48 PM,80.6,69.8,70,29.99,10.0,WNW,12.7,-,N/A,,Mostly Cloudy,300,2014-01-06 19:48:00
2:53 PM,78.8,69.8,74,29.99,10.0,West,17.3,-,N/A,,Light Drizzle,280,2014-01-06 19:53:00
2:55 PM,77.0,69.8,78,29.99,10.0,WNW,16.1,-,N/A,,Mostly Cloudy,290,2014-01-06 19:55:00
2:58 PM,77.0,69.8,78,30.00,10.0,WNW,16.1,-,0.00,,Mostly Cloudy,300,2014-01-06 19:58:00
3:08 PM,77.0,68.0,74,29.99,10.0,NW,8.1,-,N/A,,Mostly Cloudy,310,2014-01-06 20:08:00
3:14 PM,77.0,68.0,74,30.00,10.0,WNW,5.8,-,N/A,Rain,Light Rain,300,2014-01-06 20:14:00
3:45 PM,73.4,69.8,88,29.99,10.0,West,2.3,-,N/A,,Partly Cloudy,270,2014-01-06 20:45:00
3:58 PM,74.5,70.3,87,30.00,10.0,SSW,2.3,-,0.02,,Scattered Clouds,210,2014-01-06 20:58:00
4:58 PM,77.0,71.8,84,30.01,10.0,WNW,8.1,-,N/A,,Scattered Clouds,300,2014-01-06 21:58:00
5:58 PM,74.1,70.7,89,30.04,10.0,NE,1.2,-,N/A,,Mostly Cloudy,40,2014-01-06 22:58:00
6:58 PM,74.5,68.9,83,30.06,10.0,West,4.6,-,N/A,,Overcast,280,2014-01-06 23:58:00
7:58 PM,71.6,65.5,81,30.09,10.0,NNW,16.1,-,N/A,,Scattered Clouds,340,2014-01-07 00:58:00
8:58 PM,66.0,56.5,71,30.14,10.0,NNW,18.4,28.8,N/A,,Mostly Cloudy,340,2014-01-07 01:58:00
9:58 PM,63.5,50.2,62,30.16,10.0,NNW,17.3,-,N/A,,Mostly Cloudy,330,2014-01-07 02:58:00
10:58 PM,60.8,36.1,40,30.17,10.0,NNW,23.0,-,N/A,,Overcast,340,2014-01-07 03:58:00
11:58 PM,58.5,46.0,63,30.17,10.0,NNW,19.6,31.1,N/A,,Mostly Cloudy,340,2014-01-07 04:58:00